Regional Weather Roundup
Issued by NWS

Home | Current Version | Previous Version | Graphics & Text | Print | Product List | Glossary On
Versions: 1 2 3 4 5 6 7 8 9 10 11 12 13 14 15 16 17 18 19 20 21 22 23 24 25 26 27 28 29 30 31 32 33 34 35 36 37 38 39 40 41 42 43 44 45 46 47 48 49 50
000
ASUS43 KLMK 251110
RWRKY
KENTUCKY REGIONAL WEATHER ROUNDUP
NATIONAL WEATHER SERVICE LOUISVILLE KY
700 AM EDT MON MAY 25 2015

NOTE "FAIR" INDICATES FEW OR NO CLOUDS BELOW 12,000 FEET
WITH NO SIGNIFICANT WEATHER AND/OR OBSTRUCTIONS TO VISIBILITY.

KYZ001>023-026-027-061>063-070>075-251200-
WESTERN AND SOUTH CENTRAL KENTUCKY

CITY           SKY/WX    TMP DP  RH WIND       PRES   REMARKS
PADUCAH        LGT RAIN  68  65  90 VRB7      30.04R
HENDERSON      CLOUDY    66  63  88 S13       30.05R
OWENSBORO      CLOUDY    67  66  96 S10       30.08S
HOPKINSVILLE   LGT RAIN  68  66  94 S8        30.10R FOG
BOWLING GREEN  CLOUDY    68  64  87 W3        30.12R
GLASGOW        CLOUDY    72  56  58 S8        30.13R
$$

KYZ024-025-028>034-038-045-046-053-251200-
NORTH CENTRAL KENTUCKY

CITY           SKY/WX    TMP DP  RH WIND       PRES   REMARKS
LOUISVILLE/SDF LGT RAIN  71  61  70 SW16      30.13R
LOUISVILLE/LOU LGT RAIN  71  60  68 SW6       30.12R
FORT KNOX      HVY RAIN  66  63  88 SW6       30.12R FOG
$$

KYZ035>037-039>044-047>052-055>060-089>105-251200-
NORTHEAST KENTUCKY

CITY           SKY/WX    TMP DP  RH WIND       PRES   REMARKS
LEXINGTON      CLOUDY    69  55  60 S10       30.14R
COVINGTON      CLOUDY    68  57  68 S8        30.11R
FRANKFORT      CLOUDY    68  56  65 S6        30.12R
$$

KYZ054-064>069-076>088-106>120-251200-
SOUTHEAST KENTUCKY

CITY           SKY/WX    TMP DP  RH WIND       PRES   REMARKS
JACKSON        PTCLDY    65  50  58 S5        30.20R
LONDON         PTCLDY    64  51  62 SE3       30.20R
SOMERSET       CLOUDY    66  54  63 S3        30.20R
MIDDLESBORO    CLEAR     57  55  94 CALM      30.25R
MONTICELLO     MOSUNNY   71  56  59 S9        30.20R
$$




USA.gov is the U.S. government's official web portal to all federal, state and local government web resources and services.